Skip Page Navigation
NASA JPL Caltech
NASA Logo - Jet Propulsion Laboratory + View the NASA Portal
+ Center for Near-Earth Object Studies
JPL Home Earth Solar System Stars & Galaxies Technology
JPL Solar System Dynamics
BODIES ORBITS EPHEMERIDES TOOLS PHYSICAL DATA DISCOVERY FAQ SITE MAP
IMPORTANT: The SSD Announcement email list is now available. Major changes are coming in the near future, including possible hostname and/or URL changes. To be notified of such changes, subscribe to this email list.

Please visit this page for more details.


JPL Small-Body Database Browser
Search: [ help ]  
324456 (2006 UE8)
Classification: Main-belt Asteroid          SPK-ID: 2324456
Ephemeris | Orbit Diagram | Orbital Elements | Mission Design | Physical Parameters | Discovery Circumstances | Close-Approach Data ]

[ show orbit diagram ]
Orbital Elements at Epoch 2459000.5 (2020-May-31.0) TDB
Reference: JPL 12 (heliocentric ecliptic J2000)
 Element Value Uncertainty (1-sigma)   Units 
e .2096276065462775 5.4656e-08  
a 2.626940064929498 1.7658e-08 au
q 2.076260906577805 1.4726e-07 au
i 4.889020753767709 5.9611e-06 deg
node 63.31501851583007 6.5193e-05 deg
peri 46.92942249585906 6.7677e-05 deg
M 14.69997519065279 1.3883e-05 deg
tp 2458936.997945812152
(2020-Mar-28.49794581)
5.9941e-05 TDB
period 1555.154972109183
4.26
1.568e-05
4.293e-08
d
yr
n .2314881837864358 2.3341e-09 deg/d
Q 3.177619223281191 2.136e-08 au
  Orbit Determination Parameters
   # obs. used (total)      222  
   data-arc span      6208 days (17.00 yr)  
   first obs. used      2002-12-05  
   last obs. used      2019-12-04  
   planetary ephem.      DE431  
   SB-pert. ephem.      SB431-N16  
   condition code      0  
   norm. resid. RMS      .59072  
   source      ORB  
   producer      Otto Matic  
   solution date      2019-Dec-14 19:32:00  

Additional Information
 Earth MOID = 1.09656 au 
 Jupiter MOID = 1.96695 au 
 T_jup = 3.365 
[ show covariance matrix ]

Ephemeris | Orbit Diagram | Orbital Elements | Mission Design | Physical Parameters | Discovery Circumstances | Close-Approach Data ]

Physical Parameter Table
Parameter Symbol Value Units Sigma Reference Notes
absolute magnitude H 17.1   n/a MPO413305  

324456 (2006 UE8)          Discovered 2006-Oct-16 by CSS at Catalina
Reference: 20120406/Numbers.arcLast Updated: 2012-04-09

[ show close-approach data ]
Alternate Designations
 2006 UE8 = 2002 XA100 
Ephemeris | Orbit Diagram | Orbital Elements | Mission Design | Physical Parameters | Discovery Circumstances | Close-Approach Data ]
ABOUT SSD CREDITS/AWARDS PRIVACY/COPYRIGHT GLOSSARY LINKS
FirstGov 2020-Feb-17 04:16 UT
(server date/time)  
NASA Home Page
Site Manager:   Ryan S. Park
Webmaster  Alan B. Chamberlin